Regional Weather Roundup
Issued by NWS Newport/Morehead, NC

Current Version | Previous Version | Graphics & Text | Print | Product List | Glossary Off
Versions: 1 2 3 4 5 6 7 8 9 10 11 12 13 14 15 16 17 18 19 20 21 22 23 24 25 26 27 28 29 30 31 32 33 34 35 36 37 38 39 40 41 42 43 44 45 46 47 48 49 50

000
ASUS42 KMHX 290710
RWRMHX
WEATHER ROUNDUP FOR EASTERN NORTH CAROLINA
NATIONAL WEATHER SERVICE NEWPORT/MOREHEAD CITY NC
200 AM EST THU JAN 29 2015

NOTE: "FAIR" INDICATES FEW OR NO CLOUDS BELOW 12,000 FEET
WITH NO SIGNIFICANT WEATHER AND/OR OBSTRUCTIONS TO VISIBILITY

NCZ015>017-031-032-045>047-102-103-290800-
NORTH COAST

CITY           SKY/WX    TMP DP  RH WIND       PRES   REMARKS
EDENTON        CLEAR     26  17  69 CALM      30.35R
ELIZABETH CITY CLEAR     28  14  55 NW8       30.34R
KITTY HAWK     SUNNY     33  19  55 N5        30.30R
MANTEO         CLEAR     34  19  55 N8        30.32R

$$

NCZ045>047-081-094-103-104-290800-
CENTRAL COAST

CITY           SKY/WX    TMP DP  RH WIND       PRES   REMARKS
FRISCO         CLEAR     35  22  58 VRB5      30.31S
SWANQUARTER    NOT AVBL

$$

NCZ095-097-098-100-101-290800-
SOUTHERN COAST

CITY           SKY/WX    TMP DP  RH WIND       PRES   REMARKS
BEAUFORT       CLEAR     31  17  56 N7        30.34R
CEDAR ISLAND   NOT AVBL
JACKSONVILLE   CLEAR     25  20  81 CALM      30.34S
PINEY ISLAND     N/A    N/A N/A N/A MISG      30.33R
WILMINGTON     CLEAR     25  21  85 CALM      30.34S


$$

NCZ011>013-027>030-043-044-078>080-089-090>093-098-290800-
COASTAL PLAIN

CITY           SKY/WX    TMP DP  RH WIND       PRES   REMARKS
AHOSKIE        CLEAR     22  16  77 CALM      30.35F
CLINTON        CLEAR     25  23  94 CALM      30.34F
ELIZABETHTOWN  CLEAR     25  20  80 CALM      30.34F
GOLDSBORO      CLEAR     24  23  97 CALM      30.32F
GREENVILLE     CLEAR     23  21  93 CALM      30.35S
HAVELOCK       CLEAR     32  15  49 N9        30.36R
KENANSVILLE    CLEAR     23  22  96 CALM      30.34F
KINSTON        CLEAR     23  18  82 CALM      30.35S
NEW BERN       CLEAR     27  21  78 CALM      30.36R
RICHLANDS      CLEAR     21  18  86 CALM      30.34F
ROCKY MOUNT    CLEAR     24  18  77 CALM      30.35S
WASHINGTON     CLEAR     27  13  55 NE3       30.35S
WHITEVILLE     CLEAR     27  22  82 CALM      30.33F

$$

AMZ130-135-150-152-154-156-158-170-250-252-270-ANZ085-086-088-633-658-670-290800-
MARINE OBSERVATIONS

STATION/POSITION TIME  TEMP    WIND        PRES    WAVE   SWELL
                       AIR SEA DIR/SP/G            HT/PER HT/PER
                 (UTC) (F)     (DEG/KT/KT) (MB)    (FT/S) (FT/S)
CHESAPEAKE LIGHT 0600   34     360/ 19/ 22 1026.8
64 E VA BEACH    0700   37 50  350/ 16/ 19 1024.9    6/ 8   3/ 8
DUCK             0700   36 42   10/ 15/ 18 1025.6
2 E DUCK         0700      42                N/A     5/ 7   2/13
10 NE DUCK       0700      45                N/A     6/ 7   2/13
OREGON INLET     0700   34 43  340/  7/ 11 1026.4
13E OREGON INLT  0700      45                N/A     7/ 7   3/13
HATTERAS CG      0700   37 43  350/ 15/ 17 1026.7
DIAMOND BUOY     0700   40 71  340/ 16/ 19 1025.7    7/11   5/11
17 S OCRACOKE    NOT AVBL
CAPE LOOKOUT     0600   38     340/ 11/ 14 1026.5
BEAUFORT LAB     0700   36 46  360/  8/ 10 1026.3
27 SE WRIGHTSVLE NOT AVBL
5 SE WRIGHTSVLE  0600   44 52   20/ 10/ 14 1027.2
225 S CAPE HAT   0600   56 72  350/ 17/ 23 1023.6   10/ 8   7/10
41 SE CHARLESTON 0700   50 66   30/ 12/ 16 1026.6    4/ 6   3/ 6

$$



USA.gov is the U.S. government's official web portal to all federal, state and local government web resources and services.